Location: *
(45.9500°N, 9.0833°E)
Time: 14:53:50
(UTC+00:00)

SJ 16-02 - Pass Details

Date: 03 March 2021
Orbit: 605 x 617 km, 75.0° (Epoch: 15 April)

Event Time Altitude Azimuth Distance (km) Brightness Sun altitude
Rises 19:34:36 0° 343° (NNW) 2,883 5.3 -25.1°
Reaches altitude 10° 19:36:54 10° 348° (NNW) 1,976 4.3 -25.5°
Enters shadow 19:39:28 32° 5° (N) 1,052 2.6 -25.9°
